Simultaneous Nadir Overpasses (SNOs) Predictions

Prediction of SNOs between GOES-17 and METOP-B Satellite Orbit:

Table of predicted SNOs for the next 14.0 days since TLE Epoch: 7/18/2020
Index Date Time (GOES-17) GOES-17 Lat,Lon METOP-B Lat,Lon Distance(km) Time Diff (sec)
1 07/20/2020 06:38:09 -0.00,-137.19 -0.04,-137.30 12.33 80
2 07/22/2020 18:39:00 -0.02,-137.18 -0.07,-136.87 35.40 80
3 07/24/2020 06:55:20 0.02,-137.17 -0.95,-141.46 489.53 80
4 07/25/2020 06:37:20 0.02,-137.16 0.19,-136.47 78.80 80
5 07/26/2020 18:53:31 -0.02,-137.14 0.83,-141.03 442.59 80
6 07/27/2020 18:35:31 -0.02,-137.13 -0.25,-136.03 125.45 80
7 07/29/2020 06:51:50 0.02,-137.11 -0.77,-140.62 400.39 80
8 07/30/2020 06:33:51 0.02,-137.09 0.36,-135.63 167.02 80
9 07/31/2020 18:50:01 0.01,-137.06 0.71,-140.18 355.14 80
